Location: Unspecified
(0.0000°N, 0.0000°E)
Time: 20:24:19
(UTC+00:00)

BlueWalker 3 - Pass Details

Date: 20 March 2026
Orbit: 449 x 457 km, 53.2° (Epoch: 21 April)

Event Time Altitude Azimuth Distance (km) Brightness Sun altitude
Rises 05:34:57 0° 344° (NNW) 2,450 5.3 -8.2°
Reaches altitude 10° 05:37:17 10° 356° (N) 1,579 4.4 -7.6°
Maximum altitude 05:40:21 27° 56° (NE) 901 4.0 -6.8°
Drops below altitude 10° 05:43:24 10° 116° (ESE) 1,581 5.7 -6.0°
Sets 05:45:44 0° 128° (SE) 2,453 6.4 -5.5°
